Regional Weather Roundup
Issued by NWS

Home | Current Version | Previous Version | Text Only | Print | Product List | Glossary On
Versions: 1 2 3 4 5 6 7 8 9 10 11 12 13 14 15 16 17 18 19 20 21 22 23 24 25 26 27 28 29 30 31 32 33 34 35 36 37 38 39 40 41 42 43 44 45 46 47 48 49 50
000
ASUS45 KCYS 191210
RWRWY

WYOMING REGIONAL WEATHER ROUNDUP
NATIONAL WEATHER SERVICE CHEYENNE WY
600 AM MDT FRI SEP 19 2014

NOTE:  "FAIR" INDICATES FEW OR NO CLOUDS BELOW 12,000 FEET
WITH NO SIGNIFICANT WEATHER AND/OR OBSTRUCTIONS TO VISIBILITY.

WYZ001-191300-
YELLOWSTONE NATIONAL PARK

CITY           SKY/WX    TMP DP  RH WIND       PRES   REMARKS
LK YELLOWSTONE   N/A     37  36  96 CALM      30.17R
6HR MIN TEMP:  37; 6HR MAX TEMP:  48;

W YELLOWSTONE  NOT AVBL

$$
WYZ002>013-054>058-071-098>099-191300-
NORTHERN WYOMING

CITY           SKY/WX    TMP DP  RH WIND       PRES   REMARKS
JACKSON        PTCLDY    41  39  93 N6        30.12R
CODY             N/A    N/A N/A N/A MISG        N/A
GREYBULL       CLOUDY    57  56  96 E3        29.89R
6HR MIN TEMP:  57; 6HR MAX TEMP:  66; 6HR PCP: TRACE;

WORLAND        CLOUDY    56  54  93 SW8       29.92R
6HR MIN TEMP:  55; 6HR MAX TEMP:  65; 6HR PCP: TRACE;

SHERIDAN       CLOUDY    59  51  75 CALM      29.85R
6HR MIN TEMP:  58; 6HR MAX TEMP:  64; 6HR PCP: TRACE;

BUFFALO        CLOUDY    58  50  75 SW7       29.92R
6HR MIN TEMP:  58; 6HR MAX TEMP:  63; 6HR PCP:  0.01;

GILLETTE       CLOUDY    59  53  80 SW13      29.87R
6HR MIN TEMP:  57; 6HR MAX TEMP:  64; 6HR PCP:  0.02;

HULETT         FAIR      59  52  77 MISG      29.86
NEWCASTLE      FAIR      59  48  67 S7        29.87

$$
WYZ014>020-022>026-101>103-191300-
CENTRAL WYOMING

CITY           SKY/WX    TMP DP  RH WIND       PRES   REMARKS
BIG PINEY      MOCLDY    48  46  93 N7        30.14R
6HR MIN TEMP:  48; 6HR MAX TEMP:  58; 6HR PCP:  0.03;

PINEDALE       PTSUNNY   46  46 100 CALM      30.16R
DUBOIS         FAIR      48  41  76 NW13      30.09S
LANDER         CLOUDY    62  42  47 NW5       29.97S
6HR MIN TEMP:  60; 6HR MAX TEMP:  70; 6HR PCP: TRACE;

RIVERTON       CLOUDY    59  48  67 CALM      29.98R
6HR MIN TEMP:  58; 6HR MAX TEMP:  66; 6HR PCP:  0.02;

CASPER         CLOUDY    58  49  72 W7        29.96F
6HR MIN TEMP:  52; 6HR MAX TEMP:  62; 6HR PCP:  0.02;

DOUGLAS        MOCLDY    55  47  74 NW6       29.99R
6HR MIN TEMP:  52; 6HR MAX TEMP:  66;


$$
WYZ021-027>030-104>119-191300-
SOUTHERN WYOMING

CITY           SKY/WX    TMP DP  RH WIND       PRES   REMARKS
EVANSTON       CLOUDY    51  48  89 S5        30.17S
6HR MIN TEMP:  51; 6HR MAX TEMP:  54; 6HR PCP:  0.04;

KEMMERER       CLOUDY    50  46  87 CALM      30.17S
FORT BRIDGER     N/A     54  52  94 S6        30.20S
ROCK SPRINGS   CLOUDY    53  50  89 S8        30.13F
6HR MIN TEMP:  53; 6HR MAX TEMP:  61; 6HR PCP: TRACE;

DIXON          FAIR      43  38  82 E5        30.18R
RAWLINS        PTCLDY    53  40  61 SW6       30.15R
6HR MIN TEMP:  53; 6HR MAX TEMP:  65;

SARATOGA       FAIR      45  37  76 CALM      30.18R
LARAMIE        CLEAR     49  35  58 E7        30.12R
6HR MIN TEMP:  47; 6HR MAX TEMP:  59;

CHEYENNE       PTCLDY    59  38  45 E7        30.02R
6HR MIN TEMP:  54; 6HR MAX TEMP:  66;

TORRINGTON     PTCLDY    56  52  86 NW6       29.90R
6HR MIN TEMP:  54; 6HR MAX TEMP:  61;

PINE BLUFFS    FAIR      52  41  66 W6        29.97R

$$



USA.gov is the U.S. government's official web portal to all federal, state and local government web resources and services.